{"data":{"norad_id":44058,"intl_designator":"2019-010B","name":"ONEWEB-0010","alt_names":[],"object_type":"PAYLOAD","status":"ACTIVE","operator":null,"country":"UK","launch_date":"2019-02-27","launch_site_code":"FRGUI","launch_vehicle":null,"mission":null,"orbit_class":"UNKNOWN","rcs_meters":null,"size_class":null,"mass_kg":null,"dimensions":null,"purposes":["comms"],"wikipedia_slug":null,"has_3d_model":false,"image_url":null,"decayed_at":null,"tle_current":{"epoch":"2026-09-20T04:46:08.746176Z","epoch_age_seconds":40514,"freshness":"FRESH","line1":"1 44058U 19010B   26263.19871234 -.00000015  00000+0 -73708-4 0  9992","line2":"2 44058  87.9153 209.9186 0001842  69.0769 291.0559 13.16593421364114","mean_motion":13.16593421,"eccentricity":0.0001842,"inclination_deg":87.9153,"raan_deg":209.9186,"arg_perigee_deg":69.0769,"mean_anomaly_deg":291.0559,"bstar":-7.3708e-5,"rev_number":36411,"period_min":109.37317299567,"perigee_km":1196.3643938764,"apogee_km":1199.1553542848,"semimajor_km":7575.8968740806,"source":"CELESTRAK","updated_at":"2026-09-20T09:00:44.543487Z"}}}